Eveleth, MN

5:45 PM CST on February 19, 2017 (GMT -0600)
Eveleth-Virginia Municipal

Weather History for KEVM - August, 2013

Change the Weather History Date:

Saturday, August 17, 2013

  Actual Average Record
Temperature  
Mean Temperature 60 °F -  
Max Temperature 78 °F 72 °F 87 °F (2008)
Min Temperature 42 °F 50 °F 40 °F (1992)
Degree Days  
Heating Degree Days 5    
Growing Degree Days 10 (Base 50)    
Moisture  
Dew Point 52 °F    
Average Humidity 69    
Maximum Humidity 100    
Minimum Humidity 42    
Precipitation  
Precipitation 0.00 in - - ()
Sea Level Pressure  
Sea Level Pressure 30.13 in    
Wind  
Wind Speed 6 mph (SW)    
Max Wind Speed 17 mph    
Max Gust Speed 24 mph    
Visibility 8 miles    
Events Fog    
Averages and records for this station are not official NWS values.
T = Trace of Precipitation, MM = Missing Value Source: NWS Daily Summary

Daily Weather History Graph

Daily Weather History Graph

Search for Another Location

Airport or City:

Trip Planner

Search our weather history database for the weather conditions in past years. The results will help you decide how hot, cold, wet, or windy it might be!

Date:

Astronomy

Aug. 17, 2013 Rise Set
Actual Time 6:09 AM CDT 8:17 PM CDT
Civil Twilight 5:35 AM CDT 8:51 PM CDT
Nautical Twilight 4:54 AM CDT 9:32 PM CDT
Astronomical Twilight 4:07 AM CDT 10:18 PM CDT
Moon 5:40 PM CDT (8/17) 2:04 AM CDT (8/17)
Length of Visible Light 15h 15m
Length of Day
14h 08m
Waxing Gibbous, 84% of the Moon is Illuminated
Aug 17
Waxing Gibbous
Aug 20
Full
Aug 28
Last Quarter
Sep 5
New
Sep 12
First Quarter

Hourly Weather History & Observations

Time (CDT) Temp. Dew Point Humidity Pressure Visibility Wind Dir Wind Speed Gust Speed Precip Events Conditions
12:08 AM 59.0 °F 53.6 °F 82% 30.16 in 10.0 mi SW 4.6 mph - N/A   Clear
12:27 AM 59.0 °F 53.6 °F 82% 30.16 in 10.0 mi SW 4.6 mph - N/A   Clear
12:48 AM 57.2 °F 51.8 °F 82% 30.16 in 10.0 mi SW 3.5 mph - N/A   Clear
1:08 AM 53.6 °F 51.8 °F 94% 30.17 in 10.0 mi Calm Calm - N/A   Clear
1:27 AM 51.8 °F 50.0 °F 94% 30.17 in 10.0 mi Calm Calm - N/A   Clear
1:48 AM 51.8 °F 50.0 °F 94% 3.06 in 7.0 mi Calm Calm - N/A   Clear
2:08 AM 51.8 °F 50.0 °F 94% 30.17 in 2.5 mi Calm Calm - N/A   Clear
2:27 AM 51.8 °F 50.0 °F 94% 30.17 in 1.0 mi Calm Calm - N/A   Mist
2:48 AM 50.0 °F 48.2 °F 94% 30.17 in 1.2 mi Calm Calm - N/A   Mist
3:07 AM 46.4 °F 46.4 °F 100% 30.17 in 0.8 mi Calm Calm - N/A   Mist
3:28 AM 46.4 °F 44.6 °F 93% 30.17 in 0.5 mi Calm Calm - N/A Fog Fog
3:47 AM 44.6 °F 44.6 °F 100% 30.17 in 1.2 mi Calm Calm - N/A   Mist
4:08 AM 44.6 °F 44.6 °F 100% 30.17 in 0.5 mi Calm Calm - N/A Fog Fog
4:27 AM 44.6 °F 42.8 °F 93% 30.17 in 0.2 mi Calm Calm - N/A Fog Fog
4:48 AM 44.6 °F 42.8 °F 93% 30.17 in 0.2 mi Calm Calm - N/A Fog Fog
5:08 AM 44.6 °F 42.8 °F 93% 30.17 in 0.2 mi Calm Calm - N/A Fog Fog
5:27 AM 44.6 °F 42.8 °F 93% 30.17 in 0.5 mi Calm Calm - N/A Fog Fog
5:48 AM 42.8 °F 42.8 °F 100% 30.17 in 0.2 mi Calm Calm - N/A Fog Fog
6:08 AM 42.8 °F 41.0 °F 93% 30.17 in 0.2 mi Calm Calm - N/A Fog Fog
6:27 AM 42.8 °F 41.0 °F 93% 30.17 in 0.2 mi Calm Calm - N/A Fog Fog
6:48 AM 42.8 °F 42.8 °F 100% 30.17 in 0.2 mi Calm Calm - N/A Fog Fog
7:08 AM 44.6 °F 42.8 °F 93% 30.17 in 0.5 mi Calm Calm - N/A Fog Fog
7:27 AM 50.0 °F 48.2 °F 94% 30.17 in 1.0 mi Calm Calm - N/A   Mist
7:48 AM 53.6 °F 53.6 °F 100% 30.17 in 10.0 mi Calm Calm - N/A   Clear
8:08 AM 57.2 °F 55.4 °F 94% 30.17 in 10.0 mi Calm Calm - N/A   Clear
8:27 AM 59.0 °F 57.2 °F 94% 30.17 in 10.0 mi SW 8.1 mph - N/A   Clear
8:48 AM 62.6 °F 57.2 °F 82% 30.17 in 10.0 mi SW 8.1 mph - N/A   Clear
9:08 AM 64.4 °F 55.4 °F 73% 30.17 in 10.0 mi SW 6.9 mph - N/A   Clear
9:27 AM 68.0 °F 55.4 °F 64% 30.16 in 10.0 mi SW 12.7 mph 18.4 mph N/A   Clear
9:48 AM 69.8 °F 57.2 °F 64% 30.16 in 10.0 mi SW 12.7 mph 16.1 mph N/A   Clear
10:08 AM 71.6 °F 57.2 °F 60% 30.17 in 10.0 mi SW 12.7 mph 20.7 mph N/A   Clear
10:27 AM 71.6 °F 55.4 °F 57% 30.16 in 10.0 mi SW 13.8 mph 23.0 mph N/A   Clear
10:48 AM 71.6 °F 53.6 °F 53% 30.16 in 10.0 mi SW 12.7 mph 23.0 mph N/A   Clear
11:08 AM 73.4 °F 53.6 °F 50% 30.16 in 10.0 mi SW 17.3 mph 24.2 mph N/A   Clear
11:27 AM 71.6 °F 53.6 °F 53% 30.15 in 10.0 mi SSW 13.8 mph 23.0 mph N/A   Mostly Cloudy
11:48 AM 71.6 °F 53.6 °F 53% 30.16 in 10.0 mi SW 12.7 mph 18.4 mph N/A   Mostly Cloudy
12:08 PM 77.0 °F 55.4 °F 47% 30.15 in 10.0 mi SW 16.1 mph 21.9 mph N/A   Overcast
12:27 PM 71.6 °F 53.6 °F 53% 30.15 in 10.0 mi SW 12.7 mph 20.7 mph N/A   Mostly Cloudy
12:48 PM 77.0 °F 55.4 °F 47% 30.14 in 10.0 mi SW 13.8 mph 19.6 mph N/A   Scattered Clouds
1:07 PM 77.0 °F 55.4 °F 47% 30.13 in 10.0 mi WSW 15.0 mph - N/A   Mostly Cloudy
1:28 PM 73.4 °F 53.6 °F 50% 30.13 in 10.0 mi WSW 12.7 mph 17.3 mph N/A   Scattered Clouds
1:48 PM 77.0 °F 53.6 °F 44% 30.12 in 10.0 mi WSW 13.8 mph 19.6 mph N/A   Scattered Clouds
2:07 PM 77.0 °F 53.6 °F 44% 30.12 in 10.0 mi WSW 13.8 mph 20.7 mph N/A   Scattered Clouds
2:28 PM 77.0 °F 53.6 °F 44% 30.11 in 10.0 mi SW 12.7 mph 17.3 mph N/A   Scattered Clouds
2:48 PM 77.0 °F 53.6 °F 44% 30.10 in 10.0 mi SW 11.5 mph 18.4 mph N/A   Scattered Clouds
3:07 PM 77.0 °F 53.6 °F 44% 30.10 in 10.0 mi SW 16.1 mph 20.7 mph N/A   Scattered Clouds
3:28 PM 77.0 °F 53.6 °F 44% 30.10 in 10.0 mi SW 13.8 mph - N/A   Clear
3:48 PM 78.8 °F 53.6 °F 42% 30.09 in 10.0 mi WSW 16.1 mph - N/A   Clear
4:07 PM 78.8 °F 53.6 °F 42% 30.09 in 10.0 mi SW 13.8 mph 21.9 mph N/A   Clear
4:28 PM 78.8 °F 53.6 °F 42% 30.09 in 10.0 mi SSW 11.5 mph 19.6 mph N/A   Clear
4:48 PM 77.0 °F 53.6 °F 44% 30.10 in 10.0 mi WSW 11.5 mph 23.0 mph N/A   Scattered Clouds
5:08 PM 77.0 °F 53.6 °F 44% 30.09 in 10.0 mi SSW 15.0 mph 19.6 mph N/A   Scattered Clouds
5:28 PM 77.0 °F 53.6 °F 44% 30.09 in 10.0 mi SW 15.0 mph 21.9 mph N/A   Clear
5:48 PM 77.0 °F 53.6 °F 44% 30.08 in 10.0 mi SW 16.1 mph 23.0 mph N/A   Clear
6:07 PM 77.0 °F 53.6 °F 44% 30.08 in 10.0 mi SW 13.8 mph 18.4 mph N/A   Clear
6:28 PM 77.0 °F 53.6 °F 44% 30.08 in 10.0 mi SW 15.0 mph 23.0 mph N/A   Clear
6:48 PM 75.2 °F 53.6 °F 47% 30.08 in 10.0 mi SW 12.7 mph 18.4 mph N/A   Clear
7:07 PM 73.4 °F 53.6 °F 50% 30.07 in 10.0 mi SW 10.4 mph - N/A   Clear
7:28 PM - - N/A% - 10.0 mi SW 11.5 mph 17.3 mph N/A   Clear
7:47 PM 71.6 °F 53.6 °F 53% 30.07 in 10.0 mi SSW 9.2 mph - N/A   Clear
8:08 PM 71.6 °F 55.4 °F 57% 30.07 in 10.0 mi SSW 8.1 mph - N/A   Clear
8:28 PM 69.8 °F 53.6 °F 56% 30.08 in 10.0 mi SSW 6.9 mph - N/A   Clear
8:47 PM 68.0 °F 53.6 °F 60% 30.08 in 10.0 mi SSW 8.1 mph - N/A   Clear
9:08 PM 64.4 °F 53.6 °F 68% 30.08 in 10.0 mi SSW 5.8 mph - N/A   Clear
9:28 PM 64.4 °F 53.6 °F 68% 30.08 in 10.0 mi South 5.8 mph - N/A   Clear
9:47 PM 64.4 °F 53.6 °F 68% 30.08 in 10.0 mi SSW 5.8 mph - N/A   Clear
10:08 PM 64.4 °F 53.6 °F 68% 30.08 in 10.0 mi SSW 6.9 mph - N/A   Clear
10:28 PM 64.4 °F 53.6 °F 68% 30.08 in 10.0 mi SSW 8.1 mph - N/A   Clear
10:47 PM 64.4 °F 53.6 °F 68% 30.08 in 10.0 mi SSW 8.1 mph - N/A   Clear
11:08 PM 64.4 °F 53.6 °F 68% 30.08 in 10.0 mi SSW 10.4 mph 16.1 mph N/A   Clear
11:27 PM 64.4 °F 53.6 °F 68% 30.08 in 10.0 mi SSW 10.4 mph - N/A   Clear
11:48 PM 62.6 °F 53.6 °F 72% 30.08 in 10.0 mi SSW 9.2 mph - N/A   Clear